Weather in Kerikeri

New Zealand     35°13′38″S   173°56′56″E
temp.,
°C
wind,
m/s
gust,
m/s
humid.,
%
clouds,
%
prec.,
mm/h
press.,
hPa
HPBL,
m
25 january, mon
mon2501:00+17wsw28978 0.0 1015360
04:00+18w289635 0.0 1014369
07:00+17wsw289748 0.1 1015319
10:00+22sw36708 0.1 1015838
13:00+26sw255025 0.1 10151173
16:00+28sw46430 0.0 10141142
19:00+24ssw46577 0.0 1013815
22:00+19sw398468 0.0 1015500
26 january, tue
tue2601:00+17wsw269777 0.0 1015232
04:00+17sw259769 0.0 1014194
07:00+17sw259657 0.0 1015220
10:00+23ssw13603 0.0 1016565
13:00+28nne13412 0.0 10161123
16:00+26ne44480 0.0 1015766
19:00+22ne237112 0.0 1014280
22:00+17s11950 0.0 101623
27 january, wed
wed2701:00+16ssw22961 0.0 101657
04:00+16ssw229612 0.0 101556
07:00+15sw129511 0.0 101644
10:00+24nne11593 0.0 1017449
13:00+26nne325210 0.0 1016735
16:00+26nne455718 0.0 1014542
19:00+23n356938 0.0 1013366
22:00+18sw119464 0.0 101533
28 january, thu
thu2801:00+17sw129269 0.0 101543
04:00+16ssw11900 0.0 101434
07:00+15sw11880 0.0 101336
10:00+23n13570 0.0 1013448
13:00+28n34460 0.0 10131200
16:00+28wsw35430 0.0 10111316
19:00+24sw47542 0.0 1011685
22:00+18ssw278398 0.0 1012328
29 january, fri
fri2901:00+16ssw269482 0.0 1012273
04:00+17s378093 0.0 1012569
07:00+14ssw397948 0.0 1013659
10:00+18s37586 0.0 1015835
13:00+23s354321 0.0 10151007
16:00+23ese244394 0.0 10141262
19:00+20s235152 0.0 10131080
22:00+14s38760 0.0 1016408